Volver al catálogo

STARLINK-32106

ActivoComunicacionesVLEO
NORAD 59690·PAYLOAD·🇺🇸 United States

Lanzado May 8, 2024 desde Cape Canaveral Space Force Station

Loading…

Próximos Pases (próximas 24 horas)

TLE

ActualizadoSource: CelesTrak SupGP

Época: Sep 15, 2026, 03:33 UTC

1 59690C 24086J   26258.14840278 -.00022411  00000+0 -81159-3 0  2582
2 59690  43.0021  62.2795 0001702 267.2213 172.5458 15.27594465    16

Sigue STARLINK-32106 en tiempo real con AllMySat

Download on the App Store